Orbital Elements at Epoch 2459000.5 (2020-May-31.0) TDB
Reference: JPL 20 (heliocentric ecliptic J2000)
Element | Value | Uncertainty (1-sigma) | Units |
e | .1965123888371854 | 4.1415e-08 | |
a | 2.439358387898394 | 1.6155e-08 | au |
q | 1.959994243862455 | 1.0355e-07 | au |
i | 1.480413962695496 | 4.8698e-06 | deg |
node | 265.4180896935626 | 0.00020822 | deg |
peri | 71.80302622603104 | 0.00020871 | deg |
M | 288.9651679293216 | 1.4899e-05 | deg |
tp | 2459275.087460666803 (2021-Mar-01.58746067) | 5.8506e-05 | TDB |
period | 1391.591743916473 3.81 | 1.3824e-05 3.785e-08 | d yr |
n | .2586965621014837 | 2.57e-09 | deg/d |
Q | 2.918722531934332 | 1.933e-08 | au |
|
| | Orbit Determination Parameters
Additional Information
|